QPF
0.01 0.01 0.01 0.02 0.02 0.03 0.03 0.05 0.04 0.03 0.04 0.05 0.05 0.06 0.06 0.05 0.04 0.05 0.03 0.03 0.04 0.03 0.02 0.02 0.02 0.02 0.03 0.03 0.03 0.03 0.03 0.03 0.03 0.03 0.03 0.03 0.05 0.05 0.05 0.05 0.04 0.03 0.03
0.01 0.01 0.00 0.01 0.01 0.01 0.01 0.02 0.02 0.02 0.03 0.02 0.03 0.03 0.05 0.04 0.03 0.03 0.03 0.04 0.05 0.03 0.02 0.02 0.01 0.01 0.02 0.02 0.03 0.03 0.03 0.03 0.02 0.03 0.03 0.03 0.05 0.05 0.06 0.06 0.04 0.03 0.03
0.01 0.01 0.01 0.01 0.01 0.02 0.03 0.03 0.03 0.02 0.01 0.01 0.02 0.03 0.04 0.03 0.03 0.03 0.03 0.05 0.04 0.03 0.03 0.03 0.03 0.02 0.01 0.03 0.03 0.03 0.02 0.02 0.02 0.02 0.03 0.04 0.04 0.05 0.06 0.05 0.04 0.03 0.03
0.01 0.02 0.02 0.02 0.02 0.03 0.03 0.03 0.03 0.02 0.01 0.01 0.02 0.03 0.03 0.03 0.04 0.03 0.02 0.02 0.03 0.03 0.03 0.02 0.02 0.02 0.02 0.03 0.04 0.04 0.03 0.02 0.02 0.03 0.03 0.03 0.05 0.06 0.07 0.05 0.05 0.03 0.03
0.02 0.02 0.01 0.02 0.01 0.01 0.01 0.02 0.03 0.02 0.01 0.01 0.01 0.01 0.01 0.01 0.02 0.02 0.02 0.02 0.02 0.03 0.03 0.03 0.03 0.03 0.02 0.02 0.03 0.04 0.03 0.02 0.03 0.03 0.03 0.03 0.05 0.07 0.08 0.08 0.06 0.05 0.05
0.01 0.01 0.01 0.02 0.01 0.01 0.02 0.03 0.03 0.02 0.01 0.01 0.00 0.00 0.00 0.01 0.01 0.01 0.02 0.02 0.03 0.04 0.03 0.03 0.02 0.02 0.02 0.02 0.03 0.03 0.02 0.02 0.02 0.02 0.03 0.04 0.06 0.08 0.08 0.06 0.05 0.06 0.09
0.00 0.00 0.01 0.02 0.02 0.02 0.03 0.03 0.02 0.01 0.01 0.00 0.01 0.01 0.01 0.01 0.02 0.02 0.02 0.03 0.05 0.05 0.03 0.02 0.02 0.02 0.01 0.01 0.02 0.03 0.03 0.03 0.03 0.03 0.04 0.06 0.08 0.09 0.08 0.05 0.05 0.05 0.07
0.00 0.00 0.00 0.01 0.01 0.02 0.03 0.03 0.01 0.01 0.01 0.01 0.02 0.02 0.02 0.03 0.04 0.04 0.04 0.06 0.06 0.05 0.05 0.02 0.02 0.02 0.02 0.02 0.01 0.03 0.03 0.04 0.04 0.03 0.04 0.06 0.09 0.09 0.08 0.05 0.04 0.04 0.03
0.00 0.00 0.00 0.00 0.01 0.02 0.02 0.02 0.01 0.01 0.01 0.01 0.02 0.03 0.04 0.05 0.04 0.04 0.05 0.06 0.07 0.07 0.06 0.03 0.02 0.03 0.03 0.03 0.02 0.02 0.02 0.03 0.04 0.03 0.04 0.06 0.08 0.07 0.07 0.05 0.03 0.03 0.03
0.00 0.01 0.01 0.01 0.01 0.01 0.02 0.02 0.01 0.01 0.01 0.01 0.02 0.02 0.03 0.05 0.05 0.05 0.04 0.05 0.05 0.07 0.07 0.04 0.03 0.03 0.04 0.04 0.02 0.01 0.01 0.03 0.03 0.04 0.05 0.06 0.06 0.06 0.06 0.05 0.04 0.03 0.03
0.00 0.01 0.01 0.01 0.02 0.02 0.01 0.01 0.02 0.01 0.01 0.01 0.01 0.02 0.02 0.05 0.05 0.05 0.05 0.04 0.04 0.06 0.06 0.04 0.03 0.05 0.06 0.05 0.02 0.01 0.01 0.03 0.04 0.04 0.05 0.06 0.05 0.06 0.06 0.05 0.04 0.04 0.03
0.01 0.01 0.01 0.01 0.01 0.01 0.02 0.02 0.01 0.01 0.01 0.01 0.02 0.02 0.03 0.05 0.05 0.05 0.05 0.05 0.05 0.06 0.07 0.07 0.06 0.06 0.08 0.07 0.04 0.03 0.03 0.02 0.02 0.02 0.03 0.04 0.07 0.08 0.07 0.06 0.05 0.04 0.03
0.02 0.01 0.01 0.00 0.00 0.00 0.01 0.01 0.01 0.01 0.02 0.02 0.03 0.03 0.03 0.04 0.05 0.04 0.04 0.04 0.04 0.05 0.06 0.08 0.08 0.07 0.09 0.09 0.05 0.03 0.02 0.01 0.01 0.01 0.01 0.02 0.06 0.10 0.08 0.07 0.06 0.05 0.03
0.03 0.02 0.01 0.01 0.00 0.00 0.00 0.00 0.01 0.01 0.01 0.02 0.02 0.03 0.03 0.04 0.04 0.03 0.04 0.05 0.04 0.04 0.06 0.08 0.07 0.06 0.06 0.07 0.06 0.02 0.01 0.00 0.00 0.00 0.01 0.01 0.04 0.07 0.07 0.06 0.05 0.04 0.03
0.03 0.02 0.02 0.02 0.00 0.00 0.00 0.00 0.01 0.01 0.01 0.02 0.03 0.04 0.04 0.05 0.04 0.03 0.03 0.05 0.05 0.05 0.06 0.05 0.04 0.04 0.05 0.07 0.06 0.03 0.02 0.00 0.00 0.00 0.00 0.01 0.03 0.04 0.04 0.04 0.03 0.03 0.04
0.03 0.03 0.02 0.01 0.01 0.00 0.00 0.00 0.01 0.02 0.02 0.02 0.03 0.04 0.04 0.04 0.04 0.03 0.03 0.05 0.05 0.04 0.05 0.04 0.03 0.05 0.07 0.06 0.05 0.04 0.02 0.01 0.00 0.00 0.01 0.01 0.03 0.04 0.02 0.02 0.02 0.02 0.03
0.01 0.02 0.01 0.01 0.01 0.01 0.01 0.02 0.02 0.02 0.01 0.02 0.02 0.03 0.04 0.05 0.06 0.07 0.06 0.04 0.02 0.02 0.02 0.03 0.03 0.05 0.07 0.05 0.05 0.03 0.02 0.01 0.01 0.01 0.01 0.02 0.04 0.03 0.02 0.02 0.02 0.02 0.02
0.01 0.01 0.01 0.01 0.01 0.01 0.02 0.02 0.02 0.02 0.02 0.02 0.02 0.02 0.03 0.05 0.07 0.06 0.04 0.04 0.03 0.01 0.02 0.03 0.03 0.05 0.06 0.05 0.05 0.03 0.03 0.02 0.01 0.01 0.02 0.03 0.04 0.02 0.02 0.01 0.01 0.01 0.01
0.01 0.01 0.01 0.01 0.01 0.01 0.01 0.02 0.02 0.02 0.01 0.01 0.02 0.03 0.03 0.03 0.04 0.04 0.04 0.04 0.03 0.02 0.02 0.03 0.02 0.03 0.03 0.03 0.03 0.04 0.03 0.02 0.01 0.01 0.03 0.04 0.04 0.02 0.01 0.01 0.01 0.01 0.01
0.01 0.01 0.01 0.01 0.00 0.00 0.00 0.01 0.02 0.02 0.02 0.02 0.02 0.02 0.02 0.02 0.03 0.03 0.04 0.05 0.04 0.02 0.02 0.03 0.02 0.01 0.02 0.02 0.02 0.04 0.04 0.02 0.02 0.03 0.05 0.05 0.02 0.01 0.02 0.02 0.02 0.01 0.01
0.02 0.01 0.01 0.01 0.01 0.00 0.00 0.00 0.01 0.01 0.02 0.02 0.02 0.02 0.02 0.02 0.02 0.03 0.04 0.05 0.04 0.03 0.03 0.03 0.02 0.02 0.02 0.02 0.02 0.03 0.04 0.04 0.04 0.06 0.06 0.03 0.02 0.01 0.01 0.02 0.01 0.01 0.01
0.02 0.01 0.01 0.00 0.01 0.01 0.02 0.03 0.02 0.01 0.01 0.02 0.02 0.03 0.02 0.02 0.03 0.03 0.03 0.04 0.04 0.03 0.03 0.04 0.03 0.03 0.02 0.02 0.02 0.03 0.04 0.06 0.08 0.07 0.04 0.02 0.01 0.01 0.01 0.01 0.01 0.00 0.01
0.01 0.01 0.00 0.00 0.00 0.01 0.01 0.03 0.03 0.02 0.01 0.02 0.02 0.03 0.02 0.01 0.02 0.03 0.03 0.03 0.02 0.02 0.03 0.04 0.03 0.02 0.02 0.02 0.02 0.03 0.03 0.04 0.06 0.06 0.03 0.01 0.01 0.01 0.01 0.01 0.01 0.01 0.00
0.02 0.01 0.00 0.00 0.00 0.00 0.01 0.03 0.04 0.03 0.01 0.01 0.01 0.02 0.03 0.02 0.02 0.03 0.04 0.03 0.02 0.01 0.02 0.02 0.02 0.03 0.03 0.03 0.03 0.03 0.04 0.04 0.06 0.07 0.04 0.02 0.01 0.01 0.01 0.01 0.01 0.01 0.01
0.02 0.02 0.01 0.00 0.00 0.00 0.01 0.01 0.02 0.01 0.01 0.01 0.01 0.01 0.01 0.02 0.03 0.04 0.05 0.04 0.03 0.02 0.01 0.02 0.03 0.03 0.03 0.04 0.03 0.03 0.04 0.04 0.06 0.07 0.05 0.03 0.02 0.01 0.01 0.01 0.01 0.01 0.01
0.02 0.02 0.01 0.00 0.00 0.00 0.00 0.01 0.01 0.01 0.01 0.01 0.01 0.00 0.01 0.02 0.03 0.05 0.05 0.04 0.03 0.02 0.02 0.02 0.03 0.02 0.02 0.03 0.04 0.03 0.03 0.04 0.04 0.06 0.07 0.04 0.03 0.02 0.02 0.02 0.01 0.01 0.01
MSLP
1017.28 1017.22 1017.12 1016.97 1016.78 1016.55 1016.33 1016.11 1015.91 1015.75 1015.62 1015.52 1015.43 1015.36 1015.29 1015.24 1015.19 1015.16 1015.14 1015.12 1015.08 1015.02 1014.91 1014.77 1014.57 1014.32 1014.04 1013.73 1013.41 1013.10 1012.79 1012.51 1012.25 1012.01 1011.78 1011.57 1011.36 1011.16 1010.96 1010.76 1010.57 1010.39 1010.24
1017.71 1017.61 1017.49 1017.35 1017.19 1017.02 1016.85 1016.69 1016.55 1016.42 1016.31 1016.19 1016.08 1015.97 1015.85 1015.73 1015.63 1015.54 1015.48 1015.42 1015.38 1015.32 1015.24 1015.13 1014.96 1014.74 1014.48 1014.17 1013.85 1013.51 1013.18 1012.88 1012.60 1012.36 1012.14 1011.94 1011.74 1011.55 1011.35 1011.14 1010.94 1010.74 1010.57
1018.10 1017.96 1017.82 1017.68 1017.54 1017.41 1017.29 1017.18 1017.08 1016.99 1016.88 1016.77 1016.63 1016.47 1016.30 1016.12 1015.95 1015.80 1015.68 1015.59 1015.53 1015.48 1015.43 1015.36 1015.24 1015.07 1014.85 1014.57 1014.26 1013.93 1013.59 1013.27 1012.98 1012.73 1012.50 1012.29 1012.10 1011.91 1011.71 1011.50 1011.29 1011.09 1010.92
1018.47 1018.28 1018.11 1017.96 1017.83 1017.73 1017.64 1017.56 1017.50 1017.42 1017.32 1017.19 1017.03 1016.83 1016.61 1016.36 1016.13 1015.91 1015.74 1015.61 1015.52 1015.48 1015.45 1015.42 1015.36 1015.25 1015.09 1014.87 1014.59 1014.28 1013.95 1013.63 1013.33 1013.05 1012.81 1012.59 1012.39 1012.20 1012.00 1011.81 1011.61 1011.43 1011.27
1018.79 1018.56 1018.36 1018.20 1018.07 1017.97 1017.90 1017.84 1017.78 1017.71 1017.61 1017.47 1017.29 1017.06 1016.79 1016.50 1016.20 1015.92 1015.69 1015.51 1015.39 1015.33 1015.31 1015.31 1015.30 1015.26 1015.16 1015.00 1014.78 1014.51 1014.21 1013.90 1013.59 1013.30 1013.05 1012.82 1012.61 1012.41 1012.22 1012.04 1011.88 1011.73 1011.60
1019.09 1018.83 1018.60 1018.42 1018.28 1018.18 1018.10 1018.03 1017.97 1017.89 1017.78 1017.63 1017.44 1017.19 1016.89 1016.57 1016.22 1015.89 1015.60 1015.36 1015.19 1015.10 1015.06 1015.07 1015.09 1015.10 1015.07 1014.97 1014.82 1014.60 1014.34 1014.06 1013.76 1013.47 1013.21 1012.96 1012.75 1012.55 1012.38 1012.22 1012.09 1011.98 1011.90
1019.41 1019.12 1018.87 1018.67 1018.51 1018.39 1018.29 1018.20 1018.12 1018.03 1017.91 1017.75 1017.55 1017.30 1017.00 1016.66 1016.29 1015.91 1015.56 1015.26 1015.02 1014.86 1014.78 1014.77 1014.79 1014.83 1014.84 1014.82 1014.73 1014.58 1014.38 1014.13 1013.86 1013.58 1013.32 1013.07 1012.85 1012.66 1012.50 1012.37 1012.27 1012.21 1012.17
1019.78 1019.48 1019.22 1019.00 1018.82 1018.67 1018.54 1018.42 1018.30 1018.19 1018.06 1017.90 1017.72 1017.48 1017.20 1016.86 1016.48 1016.07 1015.66 1015.29 1014.97 1014.73 1014.58 1014.51 1014.50 1014.54 1014.58 1014.60 1014.58 1014.50 1014.36 1014.17 1013.94 1013.69 1013.43 1013.19 1012.98 1012.79 1012.64 1012.53 1012.45 1012.42 1012.41
1020.24 1019.94 1019.67 1019.44 1019.24 1019.06 1018.90 1018.74 1018.60 1018.46 1018.32 1018.18 1018.02 1017.82 1017.56 1017.25 1016.87 1016.44 1015.98 1015.53 1015.12 1014.78 1014.53 1014.38 1014.32 1014.32 1014.37 1014.42 1014.45 1014.43 1014.35 1014.22 1014.04 1013.83 1013.60 1013.37 1013.16 1012.97 1012.83 1012.72 1012.66 1012.64 1012.65
1020.82 1020.52 1020.26 1020.03 1019.81 1019.61 1019.41 1019.22 1019.04 1018.88 1018.75 1018.62 1018.50 1018.34 1018.14 1017.86 1017.50 1017.05 1016.55 1016.03 1015.53 1015.07 1014.71 1014.46 1014.32 1014.27 1014.30 1014.35 1014.41 1014.44 1014.42 1014.34 1014.21 1014.04 1013.84 1013.62 1013.42 1013.24 1013.09 1012.98 1012.92 1012.90 1012.91
1021.50 1021.23 1020.98 1020.75 1020.53 1020.30 1020.07 1019.85 1019.65 1019.48 1019.35 1019.25 1019.16 1019.06 1018.90 1018.66 1018.33 1017.88 1017.35 1016.77 1016.18 1015.62 1015.15 1014.79 1014.55 1014.43 1014.41 1014.44 1014.50 1014.55 1014.56 1014.53 1014.44 1014.30 1014.13 1013.94 1013.75 1013.57 1013.42 1013.31 1013.24 1013.20 1013.20
1022.28 1022.03 1021.81 1021.59 1021.36 1021.12 1020.86 1020.62 1020.39 1020.22 1020.09 1020.01 1019.96 1019.91 1019.80 1019.61 1019.30 1018.87 1018.32 1017.69 1017.02 1016.38 1015.80 1015.34 1015.00 1014.80 1014.70 1014.69 1014.72 1014.76 1014.78 1014.76 1014.69 1014.58 1014.43 1014.27 1014.09 1013.93 1013.79 1013.68 1013.60 1013.55 1013.52
1023.11 1022.90 1022.70 1022.50 1022.27 1022.01 1021.74 1021.47 1021.23 1021.05 1020.93 1020.87 1020.85 1020.83 1020.77 1020.61 1020.33 1019.91 1019.35 1018.70 1017.98 1017.27 1016.62 1016.06 1015.63 1015.33 1015.14 1015.05 1015.02 1015.01 1015.00 1014.97 1014.90 1014.80 1014.67 1014.54 1014.39 1014.26 1014.15 1014.05 1013.98 1013.92 1013.88
1023.96 1023.79 1023.62 1023.42 1023.19 1022.93 1022.65 1022.36 1022.11 1021.92 1021.80 1021.75 1021.74 1021.75 1021.71 1021.59 1021.33 1020.93 1020.38 1019.71 1018.98 1018.23 1017.51 1016.88 1016.36 1015.96 1015.67 1015.48 1015.35 1015.26 1015.18 1015.10 1015.01 1014.90 1014.80 1014.69 1014.59 1014.51 1014.44 1014.39 1014.34 1014.30 1014.27
1024.79 1024.66 1024.51 1024.33 1024.10 1023.84 1023.54 1023.25 1022.99 1022.78 1022.66 1022.61 1022.60 1022.61 1022.59 1022.48 1022.24 1021.85 1021.32 1020.67 1019.93 1019.16 1018.41 1017.72 1017.12 1016.63 1016.22 1015.91 1015.65 1015.45 1015.27 1015.11 1014.97 1014.84 1014.75 1014.68 1014.64 1014.62 1014.63 1014.64 1014.66 1014.66 1014.65
1025.58 1025.48 1025.35 1025.18 1024.96 1024.70 1024.40 1024.10 1023.83 1023.62 1023.48 1023.42 1023.40 1023.40 1023.37 1023.26 1023.03 1022.65 1022.14 1021.51 1020.79 1020.03 1019.26 1018.54 1017.86 1017.27 1016.75 1016.30 1015.90 1015.55 1015.24 1014.98 1014.77 1014.62 1014.52 1014.49 1014.51 1014.58 1014.68 1014.78 1014.88 1014.95 1014.99
1026.33 1026.25 1026.13 1025.97 1025.76 1025.50 1025.21 1024.91 1024.64 1024.42 1024.27 1024.18 1024.14 1024.11 1024.05 1023.92 1023.69 1023.33 1022.83 1022.23 1021.54 1020.79 1020.03 1019.27 1018.55 1017.87 1017.23 1016.63 1016.08 1015.58 1015.13 1014.75 1014.45 1014.25 1014.15 1014.15 1014.23 1014.38 1014.58 1014.79 1014.98 1015.14 1015.25
1027.02 1026.95 1026.85 1026.71 1026.51 1026.26 1025.98 1025.69 1025.42 1025.19 1025.02 1024.91 1024.83 1024.76 1024.67 1024.51 1024.26 1023.90 1023.42 1022.84 1022.18 1021.46 1020.70 1019.94 1019.17 1018.41 1017.66 1016.93 1016.23 1015.57 1014.98 1014.47 1014.08 1013.81 1013.69 1013.70 1013.83 1014.05 1014.34 1014.64 1014.94 1015.19 1015.38
1027.66 1027.60 1027.51 1027.38 1027.19 1026.96 1026.70 1026.43 1026.16 1025.93 1025.75 1025.60 1025.49 1025.37 1025.23 1025.04 1024.76 1024.39 1023.92 1023.37 1022.73 1022.04 1021.30 1020.53 1019.73 1018.91 1018.07 1017.23 1016.40 1015.60 1014.86 1014.23 1013.73 1013.39 1013.22 1013.22 1013.37 1013.63 1013.97 1014.35 1014.73 1015.06 1015.34
1028.23 1028.19 1028.11 1027.99 1027.83 1027.62 1027.38 1027.12 1026.87 1026.64 1026.44 1026.27 1026.11 1025.95 1025.76 1025.53 1025.22 1024.84 1024.37 1023.83 1023.22 1022.56 1021.84 1021.08 1020.26 1019.40 1018.50 1017.57 1016.62 1015.71 1014.85 1014.10 1013.50 1013.07 1012.84 1012.79 1012.91 1013.17 1013.53 1013.94 1014.36 1014.76 1015.11
1028.73 1028.70 1028.63 1028.53 1028.38 1028.20 1027.98 1027.75 1027.51 1027.28 1027.07 1026.88 1026.69 1026.48 1026.25 1025.97 1025.64 1025.24 1024.77 1024.24 1023.66 1023.02 1022.33 1021.59 1020.78 1019.90 1018.96 1017.97 1016.96 1015.95 1015.00 1014.15 1013.45 1012.93 1012.60 1012.47 1012.52 1012.73 1013.06 1013.46 1013.89 1014.31 1014.71
1029.14 1029.11 1029.06 1028.97 1028.84 1028.68 1028.49 1028.27 1028.05 1027.83 1027.62 1027.40 1027.18 1026.95 1026.68 1026.37 1026.01 1025.59 1025.13 1024.61 1024.06 1023.45 1022.79 1022.07 1021.28 1020.42 1019.47 1018.47 1017.42 1016.36 1015.34 1014.41 1013.62 1013.00 1012.56 1012.32 1012.27 1012.38 1012.62 1012.96 1013.35 1013.77 1014.19
1029.43 1029.41 1029.37 1029.30 1029.19 1029.04 1028.87 1028.68 1028.47 1028.26 1028.04 1027.82 1027.58 1027.32 1027.03 1026.70 1026.32 1025.90 1025.44 1024.94 1024.41 1023.84 1023.22 1022.54 1021.79 1020.96 1020.04 1019.05 1018.00 1016.93 1015.88 1014.90 1014.03 1013.30 1012.76 1012.39 1012.21 1012.19 1012.31 1012.54 1012.86 1013.23 1013.64
1029.60 1029.59 1029.56 1029.50 1029.40 1029.28 1029.12 1028.94 1028.75 1028.55 1028.34 1028.11 1027.87 1027.60 1027.29 1026.95 1026.57 1026.16 1025.71 1025.24 1024.74 1024.20 1023.63 1023.01 1022.31 1021.53 1020.66 1019.71 1018.70 1017.64 1016.59 1015.58 1014.66 1013.85 1013.20 1012.71 1012.38 1012.21 1012.19 1012.29 1012.49 1012.79 1013.15
1029.66 1029.66 1029.63 1029.58 1029.50 1029.39 1029.25 1029.09 1028.91 1028.72 1028.52 1028.30 1028.06 1027.79 1027.49 1027.16 1026.79 1026.38 1025.96 1025.51 1025.04 1024.55 1024.03 1023.46 1022.83 1022.11 1021.31 1020.43 1019.47 1018.47 1017.44 1016.43 1015.47 1014.62 1013.87 1013.27 1012.81 1012.49 1012.31 1012.27 1012.35 1012.54 1012.83
1029.62 1029.63 1029.62 1029.58 1029.52 1029.42 1029.30 1029.15 1028.99 1028.82 1028.63 1028.42 1028.19 1027.94 1027.65 1027.33 1026.98 1026.59 1026.19 1025.78 1025.35 1024.90 1024.43 1023.92 1023.35 1022.71 1021.99 1021.18 1020.30 1019.35 1018.37 1017.39 1016.43 1015.54 1014.74 1014.05 1013.47 1013.03 1012.71 1012.53 1012.48 1012.55 1012.74
Thickness
5727 5727 5726 5726 5725 5725 5725 5724 5724 5724 5723 5723 5723 5722 5721 5720 5719 5718 5718 5718 5718 5718 5718 5718 5718 5718 5718 5719 5719 5719 5719 5720 5721 5722 5722 5723 5723 5722 5722 5722 5722 5722 5722
5723 5722 5721 5721 5720 5720 5720 5719 5719 5718 5717 5717 5717 5717 5716 5716 5715 5714 5713 5713 5713 5712 5713 5713 5713 5713 5713 5713 5714 5714 5715 5715 5716 5717 5717 5718 5718 5717 5717 5717 5717 5716 5716
5719 5718 5717 5716 5716 5716 5715 5714 5713 5713 5712 5711 5710 5711 5711 5711 5710 5710 5709 5708 5708 5707 5708 5708 5708 5708 5708 5709 5709 5709 5709 5710 5711 5711 5712 5712 5712 5712 5712 5712 5712 5711 5711
5715 5714 5712 5711 5711 5711 5710 5708 5707 5706 5705 5704 5704 5705 5705 5705 5705 5705 5705 5704 5704 5703 5702 5702 5703 5703 5703 5703 5703 5704 5704 5705 5705 5706 5706 5707 5707 5707 5707 5707 5707 5707 5707
5710 5709 5708 5707 5706 5705 5704 5703 5701 5700 5698 5697 5697 5698 5699 5699 5700 5700 5700 5700 5699 5698 5698 5697 5697 5697 5697 5697 5698 5698 5699 5699 5700 5700 5701 5701 5702 5702 5702 5702 5702 5702 5702
5705 5704 5703 5702 5701 5699 5697 5696 5694 5693 5692 5691 5692 5692 5693 5694 5695 5694 5694 5695 5695 5694 5694 5693 5692 5691 5691 5691 5692 5693 5693 5694 5694 5694 5695 5695 5696 5697 5697 5697 5698 5697 5698
5701 5700 5698 5697 5696 5693 5691 5690 5688 5686 5685 5686 5684 5682 5685 5688 5688 5688 5688 5689 5689 5689 5689 5689 5687 5687 5686 5685 5686 5686 5687 5687 5688 5688 5689 5690 5690 5691 5693 5693 5693 5693 5693
5696 5695 5693 5692 5690 5688 5686 5684 5682 5679 5678 5680 5676 5673 5670 5673 5678 5682 5682 5682 5682 5683 5683 5683 5682 5681 5681 5680 5679 5679 5679 5680 5681 5682 5683 5684 5686 5687 5688 5688 5689 5689 5688
5692 5690 5689 5687 5685 5683 5680 5678 5677 5674 5671 5673 5673 5669 5663 5660 5664 5670 5673 5674 5675 5675 5676 5676 5676 5676 5675 5674 5673 5672 5672 5673 5675 5676 5677 5679 5680 5681 5682 5683 5684 5684 5684
5687 5685 5684 5682 5680 5678 5676 5674 5673 5671 5668 5665 5667 5667 5665 5663 5658 5657 5661 5665 5667 5667 5669 5670 5670 5669 5669 5668 5667 5666 5666 5667 5668 5669 5671 5672 5674 5676 5677 5678 5679 5679 5679
5682 5680 5679 5677 5675 5674 5672 5670 5668 5666 5664 5662 5660 5660 5659 5658 5658 5652 5649 5653 5656 5659 5661 5663 5663 5663 5662 5662 5661 5660 5660 5661 5661 5663 5664 5666 5668 5669 5672 5673 5673 5673 5673
5675 5675 5674 5672 5670 5669 5667 5665 5663 5661 5660 5658 5656 5655 5652 5650 5648 5647 5644 5644 5646 5650 5653 5655 5656 5656 5655 5655 5654 5654 5654 5654 5655 5656 5658 5659 5661 5663 5665 5666 5667 5667 5667
5669 5669 5668 5666 5665 5664 5663 5661 5659 5656 5655 5653 5651 5650 5649 5647 5646 5643 5640 5639 5640 5642 5645 5647 5648 5648 5648 5647 5647 5647 5647 5648 5649 5650 5651 5653 5655 5656 5658 5659 5660 5661 5661
5664 5664 5663 5661 5660 5659 5658 5656 5653 5652 5650 5648 5647 5645 5643 5642 5641 5639 5636 5634 5632 5634 5636 5638 5640 5641 5640 5640 5640 5640 5641 5641 5642 5644 5645 5647 5648 5650 5652 5652 5653 5653 5654
5661 5660 5658 5657 5655 5654 5652 5650 5648 5646 5645 5643 5641 5640 5638 5637 5636 5635 5633 5631 5627 5625 5626 5630 5631 5633 5633 5633 5633 5634 5635 5635 5636 5637 5639 5641 5642 5644 5645 5646 5646 5647 5647
5656 5654 5653 5651 5649 5648 5646 5644 5642 5641 5639 5638 5636 5635 5632 5631 5629 5629 5628 5626 5625 5622 5620 5623 5624 5625 5626 5626 5627 5627 5628 5630 5631 5632 5633 5635 5637 5638 5639 5639 5640 5640 5640
5651 5649 5648 5646 5643 5642 5640 5638 5635 5634 5633 5632 5631 5629 5626 5625 5623 5623 5622 5620 5618 5617 5615 5616 5619 5619 5619 5619 5620 5620 5622 5623 5625 5627 5628 5629 5631 5632 5633 5633 5633 5634 5634
5646 5644 5642 5640 5638 5636 5633 5631 5628 5627 5626 5624 5623 5622 5620 5619 5617 5616 5615 5614 5612 5611 5609 5608 5611 5612 5613 5613 5614 5614 5616 5618 5620 5621 5623 5624 5625 5626 5627 5627 5627 5627 5628
5640 5638 5635 5633 5631 5629 5627 5624 5622 5620 5619 5618 5617 5615 5613 5612 5610 5610 5609 5608 5607 5607 5605 5603 5604 5606 5607 5608 5608 5609 5611 5612 5614 5616 5617 5619 5620 5621 5621 5621 5621 5621 5622
5633 5631 5629 5627 5625 5622 5620 5618 5616 5614 5612 5611 5610 5609 5607 5606 5605 5604 5604 5603 5602 5600 5599 5598 5598 5599 5601 5602 5603 5603 5604 5606 5608 5611 5612 5613 5614 5615 5616 5616 5616 5616 5616
5627 5625 5623 5621 5618 5616 5613 5611 5608 5607 5604 5603 5602 5601 5600 5600 5599 5599 5599 5597 5596 5594 5593 5593 5593 5593 5594 5595 5596 5597 5598 5599 5602 5605 5606 5607 5608 5609 5610 5610 5610 5610 5610
5621 5619 5616 5613 5611 5609 5607 5604 5602 5600 5598 5596 5595 5594 5594 5593 5593 5593 5593 5592 5591 5589 5588 5587 5587 5587 5588 5589 5591 5592 5592 5592 5593 5599 5599 5600 5602 5603 5604 5605 5605 5605 5605
5613 5611 5609 5606 5603 5601 5599 5597 5595 5593 5591 5590 5589 5587 5588 5588 5587 5586 5586 5586 5586 5586 5585 5584 5583 5583 5583 5585 5585 5586 5587 5588 5588 5592 5593 5594 5597 5597 5599 5600 5600 5600 5600
5605 5603 5601 5599 5596 5594 5592 5590 5588 5586 5585 5584 5583 5582 5581 5580 5580 5580 5579 5579 5580 5580 5580 5580 5581 5581 5581 5581 5582 5583 5582 5584 5585 5587 5588 5587 5589 5591 5594 5594 5595 5595 5595
5597 5595 5594 5591 5588 5586 5585 5583 5582 5580 5579 5578 5578 5577 5576 5574 5575 5575 5574 5573 5574 5575 5576 5576 5575 5576 5576 5577 5577 5576 5576 5576 5577 5579 5581 5581 5582 5584 5587 5589 5590 5590 5590
5590 5588 5587 5584 5581 5578 5577 5576 5575 5573 5571 5571 5571 5570 5570 5569 5568 5568 5567 5567 5567 5568 5568 5568 5568 5569 5569 5571 5572 5572 5572 5570 5571 5572 5574 5574 5575 5575 5577 5581 5583 5583 5583